Location: Unspecified
(43.8044°N, 11.0278°E)
Time: 12:07:08
(UTC+02:00)

CZ-3 Stage 3 - Visible Passes

Search period start: 28 April 2017 00:00
Search period end: 08 May 2017 00:00
Orbit: 397 x 34801 km, 30.7° (Epoch: 25 April)

Date Brightness Start Highest point End Pass type
(mag) Time Alt. Az. Time Alt. Az. Time Alt. Az.
28 Apr 7.3 18:13:28 10° ENE 21:20:44 17° E 22:53:25 10° ESE visible
29 Apr 9.2 01:34:03 10° WNW 03:10:23 30° W 06:54:19 10° W visible
29 Apr 8.2 21:35:43 10° WSW 23:21:12 70° SSW 06:36:43 10° SW visible
30 Apr 7.4 17:57:01 10° SSW 23:47:52 54° SE 03:11:10 10° SSE visible
01 May 7.3 18:11:48 10° ENE 21:11:19 17° E 22:42:21 10° ESE visible
02 May 9.2 01:24:32 10° WNW 02:59:37 30° W 06:40:52 10° W visible
02 May 8.2 21:26:26 10° WSW 23:09:19 70° SSW 06:25:47 10° SW visible
03 May 7.4 17:47:42 10° SSW 23:36:02 53° SE 03:01:17 10° SSE visible
04 May 7.2 18:10:16 10° ENE 21:01:50 16° E 22:31:07 10° ESE visible
05 May 9.3 01:14:58 10° WNW 02:48:48 30° W 06:27:24 10° W visible
05 May 8.2 21:17:06 10° WSW 22:57:24 70° SSW 06:14:41 10° SW visible
06 May 7.4 17:38:20 10° SSW 23:24:08 53° SE 02:51:20 10° SSE visible
07 May 7.2 18:08:52 10° ENE 20:52:16 16° E 22:19:39 10° ESE visible
